Weather WX

World > North America > United States > Oregon

Garden Home, Oregon Regional Weather

Lat: 45.47N, Lon: 122.75W
Wx Zone: ORZ006
Feedback

Garden Home, OR Regional Weather

Expires:201906182000;;692597
ASUS46 KPQR 181910
RWROR 

OREGON REGIONAL WEATHER ROUNDUP
NATIONAL WEATHER SERVICE PORTLAND OR
1200 PM PDT TUE JUN 18 2019

NOTE: "FAIR" INDICATES FEW OR NO CLOUDS BELOW 12,000 FEET WITH
NO SIGNIFICANT WEATHER AND/OR OBSTRUCTIONS TO VISIBILITY.


ORZ001>013-182000-
NORTHWEST OREGON

  
CITY           SKY/WX    TMP DP  RH WIND       PRES   REMARKS
ASTORIA        CLOUDY    60  52  74 NW12      30.29S                  
TILLAMOOK      FAIR      64  50  59 NW17G23   30.29F                  
NEWPORT        FAIR      59  52  77 N15G25    30.31S                  
PORTLAND       PTSUNNY   68  49  50 N7        30.25R                  
VANCOUVER WA   FAIR      66  49  54 NW8       30.24S                  
SCAPPOOSE      FAIR      67  49  52 W13       30.23F                  
HILLSBORO      FAIR      67  49  52 NW10      30.24S                  
AURORA         CLOUDY    68  50  52 W5        30.25R                  
MCMINNVILLE    CLOUDY    69  51  52 N6        30.23S                  
SALEM          PTSUNNY   69  52  54 N7        30.22F                  
CORVALLIS      CLOUDY    71  54  54 VRB5      30.23S                  
EUGENE         PTSUNNY   73  55  53 NE13      30.22F                  
$$


SKY/WX - Weather  TMP - Temperature  DP - Dew Point  RH - Relative Humidity
WIND - Wind Direction/Speed PRES - Barometric Pressure VSB - Visibility
WCI - Wind Chill Index E13G22 Wind - East Wind 13 mph/Gusts of 22 mph